STARLINK-5201 (54076 NORAD) Tracking and Keplerian Element Data

This shows tracking and keplerian element data for the satellite.

Feedback or suggestion? Click here.




ElementValue
Catalog54076
NameSTARLINK-5201
Epoch Orbit548
Epoch Day325.33334491
Epoch Year2022
RAAN352.6171
Inclination53.2169
Eccentricity0.0001927
Argument of Perigee45.2519
Mean Anonmoly163.9297
Mean Motion15.49852492
Decay Rate-0.00554395
L11 54076U 22136AB 22325.33334491 -.00554395 00000+0 -10480-1 0 9996
L22 54076 53.2169 352.6171 0001927 45.2519 163.9297 15.49852492 5483



Live tracking and technical data element details for STARLINK-5201 (NORAD 54076). STARLINK-5201 can be tracked NOW for your location showing map with azimuth and elevation plus other details from your city location.







IsCatalogInMostPopularTable: catalog: 54076, numindb: 1
Update: records affected: 1



GetName: 54076 STARLINK-5201

Hit Count: updated at: Mon, 28 Nov 2022 22:33:31 GMT